Showing default

GLOBALSTAR M023, 25621

Orbit data source: Space-Track

GLOBALSTAR M023, 25621 is a payload satellite owned by Globalstar (US) in LEO that was launched on Tue, 09 Feb 1999 UTC via a SOYUZ-U-PVB launch vehicle from the Tyuratam Missile And Space Complex (TTMTR). Payloads include a variety of satellites, spacecraft, and rockets equipped with specific instruments for various scientific and technological missions. These include communications satellites like Starlink; space stations such as the ISS; scientific satellites like the Hubble; Earth observation satellites from companies like Planet Labs, Umbra, and HawkEye 360; GPS; miniature CubeSats for education and research; and military/defense satellites.

Loading next visibility...
GLOBALSTAR M023 details
Identifier
25621, 1999-004A
Orbit
LEO
Last TLE update1 day ago
Origin
Flag of USGlobalstar (US / GLOB)
ManufacturerSS/Loral
MissionNon-operational Commercial Communications
Bus & MotorLS-400, LS-400 AOCS
Mass450 kg wet, 380 kg dry
Launch date (UTC)
1999-02-09 (26 years ago)
Launch vehicle
SOYUZ-U-PVB
Launch site
Tyuratam Missile And Space Complex (TTMTR)
Object type
Payload
Rocket body
Debris
Shape & HBRBox + 2 Pan, 12 m
Radar Cross Section5.587 m², Large (>1 m²)

Expand to show TLE details & history

TLE from 1 day ago
0 GLOBALSTAR M023
1 25621U 99004A   24347.91836280  .00000035  00000-0  77075-3 0  9992
2 25621  52.0106 260.6325 0010740  75.0822  13.2736 12.62488383192203
Epoch: 2024-12-12T22:02Z
Definitive object data (Epoch: 2024-12-12T22:02:26.545Z)
Latitude52.11904°
Longitude-64.69692°
Altitude1,410.875 km
Speed7.164 km/s
True Right ascension23h 12m 01s
True Declination51° 57' 58"
Sunlit
Object was in daylight at TLE epoch
Visualization TLE readout
Latitude-7.5061°
Longitude-161.01594°
Altitude1,414.169 km
Speed7.154 km/s
Apparent Right ascension14h 11m 24s
Apparent Declination-37° 00' 36"
Sunlit
Object is in daylight
Visualization observer readout
Local Sidereal Time20:45:27
Azimuth243.961° WSW
Elevation-28.484°
Doppler factor1
Orbital elements
Apogee altitude1,421.449 km
Perigee altitude1,404.713 km
Semi-major axis7,791.218 km
Eccentricity0.001074
Inclination52.0106°
RAAN260.6325°
Arg. of periapsis75.0822°
True anomaly13.30189°
Mean anomaly13.2736°
Eccentric anomaly13.28774°
Mean motion3.15599 °/min
BSTAR0.00077075
Orbital period114.07 mins
Loading maneuver chart data...
Loading historical data...
Loading historical data...
Loading historical data...
Loading historical data...
Loading historical data...
Loading historical data...
Loading historical data...

GLOBALSTAR M023 Visibility forecast

Observer location: undefined°, undefined

Span
Click to sort rows by Start time (UTC) header in descending order
Start Az.
Max El. time (UTC)
Max El. Az.
Max El.
End time (UTC)
End Az.
16 mins2024-12-13 22:29:35.292Z259.47° W2024-12-13 22:37:35.292Z331.253° NNW38.638°2024-12-13 22:45:35.292Z49.996° ENE
14 mins2024-12-14 00:32:35.292Z299.795° NW2024-12-14 00:39:35.292Z6.377° NNE30.886°2024-12-14 00:46:35.292Z64.532° ENE
15 mins2024-12-14 02:33:35.292Z312.355° NW2024-12-14 02:40:35.292Z26.367° NE39.216°2024-12-14 02:48:35.292Z101.887° ESE
15 mins2024-12-14 04:33:35.292Z299.94° NW2024-12-14 04:40:35.292Z223.12° SW40.472°2024-12-14 04:48:35.292Z150.951° SSE
5 mins2024-12-14 06:36:35.292Z258.32° W2024-12-14 06:38:35.292Z243.969° WSW12.412°2024-12-14 06:41:35.292Z222.759° SW
13 mins2024-12-14 19:17:35.292Z178.538° S2024-12-14 19:23:35.292Z125.055° SE28.111°2024-12-14 19:30:35.292Z67.867° E
15 mins2024-12-14 21:15:35.292Z237.781° WSW2024-12-14 21:22:35.292Z316.86° NNW44.516°2024-12-14 21:30:35.292Z51.215° ENE
|